Darstellungsparameter: Aktuell verwendete Einstellungen:
Skalierung der Graphiken ... ?
xyx+y,   Skalierungsfaktor:      Skalierung: Modus: x, Faktor: 1
Darstellungszeitraum ... ?
Vom - - bis: - -   Zeitraum: 21.04.2017 - 20.04.2020
Min/Max/Avg-Anzeige ... ?
Zeige MMA aktuell
Zeige MMA Monat
Zeige MMA alles
Zeige --A aktuell
Zeige --A Monat
Zeige --A alles
Keine MMA-Anzeige
MMA:
Keine MMA-Graphiken
MMA-Basis: 21.04.2017 - 20.04.2020
Quicknavigation für Darstellung... ?
Tage:      1T, 2T, 3T, 5T -1T -2T -3T -5T +1T +2T +3T +5T
Wochen: 1W, 2W, 3W -1W -2W -3W +1W +2W +3W
Monate: 1M, 3M, 6M -1M -3M -6M +1M +3M +6M
Jahre:    1J, 3J, 5J, 10J -1J -3J -5J -10J +1J +3J +5J +10J
Nutze für die Darstellung ... ?
Originaldaten oder ...
Mittelwerte Minima Maxima auf...
Stundenbasis Tagesbasis Wochenbasis
Monatsbasis Jahresbasis      Datenbasis: Minima auf Monatsbasis
Darstellen als:
Statistik (Auto) Statistik J:M      Darstellung:
Zur Graphik,    zurück zur Übersicht aller Sensoren.
 
Tabellarische Datenbersicht: ?
 
Sensor: Nr:Datum:Temp:Feuchte:
Aussen-T/F 1 01-04-2017 00:00:00 -3.2 C 20 %
2 01-05-2017 00:00:00 1.1 C 20 %
3 01-06-2017 00:00:00 9.2 C 20 %
4 01-07-2017 00:00:00 9.2 C 20 %
5 01-08-2017 00:00:00 9.6 C 20 %
6 01-09-2017 00:00:00 5.4 C 20 %
7 01-10-2017 00:00:00 2 C 20 %
8 01-11-2017 00:00:00 -0.8 C 20 %
9 01-12-2017 00:00:00 -5 C 20 %
10 01-01-2018 00:00:00 -6.9 C 20 %
11 01-02-2018 00:00:00 -12.4 C 20 %
12 01-03-2018 00:00:00 -8.3 C 20 %
13 01-04-2018 00:00:00 -1.1 C 20 %
14 01-05-2018 00:00:00 1.2 C 20 %
15 01-06-2018 00:00:00 8.7 C 20 %
16 01-07-2018 00:00:00 11 C 20 %
17 01-08-2018 00:00:00 6.7 C 20 %
18 01-09-2018 00:00:00 1.3 C 20 %
19 01-10-2018 00:00:00 2.1 C 20 %
20 01-11-2018 00:00:00 -3.8 C 20 %
21 01-12-2018 00:00:00 -3.1 C 20 %
22 01-01-2019 00:00:00 -10.2 C 20 %
23 01-02-2019 00:00:00 -4 C 20 %
24 01-03-2019 00:00:00 -2.5 C 20 %
25 01-04-2019 00:00:00 -0.6 C 20 %
Sensor: Nr:Datum:Temp:Feuchte:
Aussen-T/F 26 01-05-2019 00:00:00 1.6 C 20 %
27 01-06-2019 00:00:00 8.2 C 20 %
28 01-07-2019 00:00:00 8.1 C 20 %
29 01-08-2019 00:00:00 9.5 C 20 %
30 01-09-2019 00:00:00 3.3 C 20 %
31 01-10-2019 00:00:00 -2.1 C 20 %
32 01-11-2019 00:00:00 -2.7 C 20 %
33 01-12-2019 00:00:00 -5 C 20 %
34 01-01-2020 00:00:00 -4.5 C 20 %
35 01-02-2020 00:00:00 -3.3 C 20 %
36 01-03-2020 00:00:00 -4.7 C 20 %
37 01-04-2020 00:00:00 -4.7 C 20 %
Sensor: Nr:Datum:Temp:Feuchte:
G-T/H 1 01-04-2017 00:00:00 3.8 C 38 %
2 01-05-2017 00:00:00 10.1 C 28 %
3 01-06-2017 00:00:00 15.8 C 32 %
4 01-07-2017 00:00:00 15.9 C 40 %
5 01-08-2017 00:00:00 15 C 41 %
6 01-09-2017 00:00:00 12.1 C 49 %
7 01-10-2017 00:00:00 10.9 C 63 %
8 01-11-2017 00:00:00 6.7 C 63 %
9 01-12-2017 00:00:00 4.7 C 52 %
10 01-01-2018 00:00:00 5.3 C 60 %
11 01-02-2018 00:00:00 2 C 40 %
12 01-03-2018 00:00:00 4 C 50 %
13 01-04-2018 00:00:00 8.5 C 37 %
14 01-05-2018 00:00:00 12 C 32 %
15 01-06-2018 00:00:00 16.3 C 27 %
16 01-07-2018 00:00:00 18.2 C 28 %
17 01-08-2018 00:00:00 16.6 C 34 %
18 01-09-2018 00:00:00 11.2 C 40 %
19 01-10-2018 00:00:00 9.7 C 60 %
20 01-11-2018 00:00:00 7.3 C 63 %
21 01-12-2018 00:00:00 6.4 C 65 %
22 01-01-2019 00:00:00 4.8 C 56 %
23 01-02-2019 00:00:00 4.5 C 62 %
24 01-03-2019 00:00:00 3.3 C 43 %
25 01-04-2019 00:00:00 6.7 C 27 %
Sensor: Nr:Datum:Temp:Feuchte:
G-T/H 26 01-05-2019 00:00:00 10.8 C 36 %
27 01-06-2019 00:00:00 14.7 C 25 %
28 01-07-2019 00:00:00 14 C 26 %
29 01-08-2019 00:00:00 14.9 C 40 %
30 01-09-2019 00:00:00 8.9 C 33 %
31 01-10-2019 00:00:00 7.3 C 60 %
32 01-11-2019 00:00:00 8 C 57 %
33 01-12-2019 00:00:00 5.1 C 61 %
34 01-01-2020 00:00:00 6 C 67 %
35 01-02-2020 00:00:00 7 C 55 %
36 01-03-2020 00:00:00 7.4 C 48 %
37 01-04-2020 00:00:00 4.2 C 40 %

Maximal/Minimal-Werte vom 21.04.2017 - 20.04.2020

Sensor Min Max Avg
Temp
(Aussen-T/F)
-12.4 °C
27-02-2018  07:25:17
46.2 °C
19-06-2017  18:30:17
11.2 °C
Feuchte
(Aussen-T/F)
20 %
21-04-2017  00:06:17
78 %
23-11-2017  06:30:17
32.62 %
Temp
(G-T/H)
2 °C
27-02-2018  07:01:17
29.7 °C
26-07-2018  16:25:17
13.64 °C
Feuchte
(G-T/H)
25 %
29-06-2019  18:04:17
85 %
16-10-2017  15:03:17
66.64 %

Warnung:
When displaying minima or maxima values for days, weeks, months or years no virtual sensors will be displayed.



Die Daten stammen von einer Davis Vantage Pro 2 Wetter-Station und werden unter Linux mit der Software wview2wettercgi und aufbereitet. Alle Angaben erfolgen ohne Gewähr für ihre Vollständigkeit oder Richtigkeit.
Kontakt: Rainer Krienke krienke@uni-koblenz.de . Meine Webseiten an der Uni Koblenz oder privat.
Version: $Revision: 0.78 $